Location: Forst
(46.9333°N, 15.4333°E)
Time: 18:39:23
(UTC+00:00)

Meteor 1-27 Rocket - Visible Passes

Search period start: 16 April 2021 00:00
Search period end: 26 April 2021 00:00
Orbit: 830 x 909 km, 81.3° (Epoch: 15 April)

Date Brightness Start Highest point End Pass type
(mag) Time Alt. Az. Time Alt. Az. Time Alt. Az.
16 Apr 3.7 00:45:02 69° NW 00:45:02 69° NW 00:50:27 10° N visible
16 Apr 5.7 02:27:27 11° WNW 02:29:15 12° NW 02:31:26 10° NNW visible
16 Apr 5.7 22:56:24 18° ENE 22:56:24 18° ENE 22:59:32 10° NE visible
17 Apr 3.8 00:38:49 67° NW 00:38:49 67° NW 00:44:11 10° N visible
17 Apr 5.8 02:21:14 10° WNW 02:23:02 12° NW 02:25:04 10° NW visible
17 Apr 5.7 22:50:10 18° ENE 22:50:10 18° ENE 22:53:22 10° NE visible
18 Apr 3.8 00:32:35 66° NW 00:32:35 66° NW 00:37:57 10° N visible
18 Apr 5.8 02:15:00 10° WNW 02:16:48 12° NW 02:18:41 10° NW visible
18 Apr 5.6 22:43:56 19° ENE 22:43:56 19° ENE 22:47:10 10° NE visible
19 Apr 3.9 00:26:20 64° NW 00:26:20 64° NW 00:31:41 10° N visible
19 Apr 5.8 02:08:54 10° WNW 02:10:35 11° NW 02:12:17 10° NW visible
19 Apr 5.6 22:37:40 19° ENE 22:37:40 19° ENE 22:40:59 10° NE visible
20 Apr 3.9 00:20:05 62° NW 00:20:05 62° NW 00:25:26 10° N visible
20 Apr 5.9 02:02:52 10° WNW 02:04:22 11° NW 02:05:53 10° NW visible
20 Apr 5.5 22:31:24 20° ENE 22:31:24 20° ENE 22:34:47 10° NE visible
21 Apr 3.9 00:13:49 61° WNW 00:13:49 61° WNW 00:19:11 10° N visible
21 Apr 5.9 01:56:52 10° WNW 01:58:09 11° NW 01:59:26 10° NW visible
21 Apr 5.5 22:25:08 21° ENE 22:25:08 21° ENE 22:28:36 10° NE visible
22 Apr 4.0 00:07:32 60° WNW 00:07:32 60° WNW 00:12:56 10° N visible
22 Apr 6.0 01:50:55 10° WNW 01:51:56 10° NW 01:52:56 10° NW visible
22 Apr 5.4 22:18:50 21° ENE 22:18:50 21° ENE 22:22:24 10° NE visible
23 Apr 4.0 00:01:15 58° WNW 00:01:15 58° WNW 00:06:41 10° N visible
23 Apr 6.0 01:45:06 10° WNW 01:45:42 10° NW 01:46:20 10° NW visible
23 Apr 5.4 22:12:32 22° ENE 22:12:32 22° ENE 22:16:13 10° NE visible
23 Apr 4.0 23:54:57 57° WNW 23:54:57 57° WNW 00:00:26 10° N visible
24 Apr 5.3 22:06:13 23° ENE 22:06:13 23° ENE 22:10:00 10° NE visible
24 Apr 4.0 23:48:38 56° WNW 23:48:38 56° WNW 23:54:11 10° N visible
25 Apr 5.3 21:59:54 23° ENE 21:59:54 23° ENE 22:03:49 10° NE visible
25 Apr 4.1 23:42:18 54° WNW 23:42:18 54° WNW 23:47:56 10° N visible
